sat.trackr.live / text

‹ back to catalog

STARLINK-37755

NORAD 69234 · 2026-115Z

PAYLOAD ACTIVE UNKNOWN

§ Identity

Operator
Country
US
Launch date
2026-05-26
Launch site
AFWTR
Launch vehicle
Mass (kg)
RCS (m²)

Purposes: comms

External: N2YO · Heavens-Above · Gunter

§ Orbital elements

Epoch: 2026-09-20T00:44:27.617280Z

Period
93.91 min
Inclination
97.2845°
Eccentricity
0.0001764
Mean motion
15.33451874 rev/d
Perigee alt
464.3 km
Apogee alt
466.7 km
Semi-major
6,843.7 km
B*
3.3851e-4
RAAN
279.9688°
Arg perigee
85.4897°
Mean anomaly
274.6547°
Rev number
1,927

§ Raw data

STARLINK-377551 69234U 26115Z   26263.03087520  .00010872  00000+0  33851-3 0  99932 69234  97.2845 279.9688 0001764  85.4897 274.6547 15.33451874 19274

JSON: /api/v1/satellites/69234 · /tle

For live sub-satellite position, see the globe view (requires WebGL).

§ Visibility from observer

Set your observer location to see the next 7 days of passes ≥ 10°. The values pass through the URL so the page stays shareable.

No JS? Fill the form by hand. The geolocation button needs JavaScript.